[Iaude] MPEC M03: 2024 LO5 [a=2.07,e=0.51,i=6.3,H=26.2]

mpec at cfa.harvard.edu mpec at cfa.harvard.edu
Sun Jun 16 07:54:54 EDT 2024


M.P.E.C. 2024-M03                                 Issued 2024 June 16, 11:53 UT

     The Minor Planet Electronic Circulars contain information on unusual
         minor planets, routine data on comets and natural satellites,
         and occasional editorial announcements.  They are published
    on behalf of Division F of the International Astronomical Union by the
          Minor Planet Center, Smithsonian Astrophysical Observatory,
                          Cambridge, MA 02138, U.S.A.
			  
             Prepared using the Tamkin Foundation Computer Network

                              MPC at CFA.HARVARD.EDU
            URL https://www.minorplanetcenter.net/    ISSN 1523-6714

                                    2024 LO5                                    


Observations:
     K24L05O* C2024 06 14.26583415 06 05.685+22 03 32.16         21.77wXEM003F52
     K24L05O  C2024 06 14.29101415 06 11.310+22 04 01.08         22.36wXEM003F52
     K24L05O  C2024 06 14.30356015 06 14.093+22 04 14.99         22.09wXEM003F52
     K24L05O  C2024 06 14.39870915 06 35.388+22 05 49.09         21.57GVEM003F51
     K24L05O  C2024 06 14.39935015 06 35.546+22 05 49.60         21.61GVEM003F51
     K24L05O KC2024 06 15.11305715 10 26.84 +22 17 33.9          21.9 GVEM003H21
     K24L05O KC2024 06 15.11594815 10 27.62 +22 17 37.2          21.7 GVEM003H21
     K24L05O KC2024 06 15.11883815 10 28.43 +22 17 40.8          21.5 GVEM003H21
     K24L05O KC2024 06 15.12230615 10 29.38 +22 17 44.4          22.0 GVEM003H21
     K24L05O KC2024 06 15.15911215 10 43.781+22 18 43.31         21.74GVEM003I52
     K24L05O KC2024 06 15.16797715 10 46.153+22 18 53.57         21.55GVEM003I52
     K24L05O KC2024 06 15.17667515 10 48.601+22 19 04.22         21.46GVEM003I52
     K24L05O 1C2024 06 15.34095815 11 42.685+22 22 45.06         21.38GVEM003T12
     K24L05O 1C2024 06 15.34692815 11 44.315+22 22 51.64         21.30GVEM003T12
     K24L05O 1C2024 06 15.35346815 11 46.143+22 22 58.86         21.25GVEM003T12
     K24L05O KC2024 06 16.17937015 17 06.570+22 38 09.00         21.71GVEM003I52
     K24L05O KC2024 06 16.18556215 17 08.650+22 38 17.20         21.52GVEM003I52
     K24L05O KC2024 06 16.20250315 17 14.510+22 38 37.90         21.23GVEM003I52
     K24L05O KC2024 06 16.20869715 17 16.710+22 38 45.60         21.09GVEM003I52

Observer details:
F51 Pan-STARRS 1, Haleakala.  Observers J. Herman, T. Lowe, P. Minguez, A.
    Schultz, I. Smith.  Measurers K. Chambers, T. de Boer, J. Fairlamb, H.
    Gao, M. Huber, C.-C. Lin, E. Magnier, Y. Ramanjooloo, R. Wainscoat, R.
    Weryk.  1.8-m Ritchey-Chretien + CCD.
F52 Pan-STARRS 2, Haleakala.  Observers J. Herman, T. Lowe, P. Minguez, A.
    Schultz, I. Smith.  Measurers K. Chambers, T. de Boer, J. Fairlamb, H.
    Gao, M. Huber, C.-C. Lin, E. Magnier, Y. Ramanjooloo, R. Wainscoat, R.
    Weryk.  1.8-m Ritchey-Chretien + CCD.
H21 Astronomical Research Observatory, Westfield.  Observer R. Holmes.
    Measurers T. Linder, R. Holmes, L. Horn.  1.3-m f/4.0 astrograph + CCD.
I52 Steward Observatory, Mt. Lemmon Station.  Observers J. K. Hogan, G. J.
    Leonard.  Measurers T. Beuden, V. F. Carvajal, D. Fay, J. B. Fazekas, D.
    C. Fuls, A. R. Gibbs, A. D. Grauer, H. Groeller, J. K. Hogan, R. A.
    Kowalski, S. M. Larson, G. J. Leonard, D. Rankin, R. L. Seaman, F. C.
    Shelly, K. W. Wierzchos.  1.0-m prime focus + CCD.
T12 University of Hawaii 88-inch telescope, Maunakea.  Observer Y.
    Ramanjooloo.  Measurers R. Weryk, Y. Ramanjooloo, J. Fairlamb, R.
    Wainscoat.  2.24-m f/10.1 reflector + CCD.

Orbital elements:
2024 LO5                                                 Earth MOID = 0.0057 AU
Epoch 2024 Mar. 31.0 TT = JDT 2460400.5                 Veres                   
M 329.01832              (2000.0)            P               Q                  
n   0.33033836     Peri.  184.57809     +0.22324179     +0.96875415             
a   2.0725104      Node    98.34919     -0.89082404     +0.24776778             
e   0.5071499      Incl.    6.27062     -0.39572166     -0.01124802             
P   2.98           H   26.26          G   0.15           U   8                  
Residuals in seconds of arc
240614 F52  0.0   0.1-    240615 H21  0.2+  0.5+    240615 T12  0.1-  0.2+
240614 F52  0.0   0.0     240615 H21  0.1+  0.1+    240616 I52  0.1+  0.3-
240614 F52  0.0   0.0     240615 I52  0.8+  0.2+    240616 I52  0.5-  0.1+
240614 F51  0.0   0.1+    240615 I52  0.2-  0.2-    240616 I52  0.0   0.1-
240614 F51  0.2+  0.0     240615 I52  0.6+  0.3+    240616 I52  0.9+  0.1+
240615 H21  0.3+  0.2+    240615 T12  0.2-  0.1-
240615 H21  0.0   0.2+    240615 T12 (0.4-  0.0 )

Ephemeris:
2024 LO5                 a,e,i = 2.07, 0.51, 6                   q = 1.0214
Date    TT    R. A. (2000) Decl.     Delta      r    Elong.  Phase     V
2024 05 17    14 37 58.0 +15 45 42   0.1839  1.1620   142.2    32.3    24.3
...
2024 06 01    14 39 45.4 +19 08 28   0.1132  1.0902   129.9    45.5    23.5
...
2024 06 09    14 49 16.8 +20 46 55   0.07721 1.0608   124.6    52.0    22.7
...
2024 06 15    15 09 47.0 +22 16 23   0.05056 1.0438   122.5    55.2    21.9
2024 06 16    15 15 50.7 +22 35 10   0.04617 1.0414   122.5    55.4    21.7
2024 06 17    15 23 16.8 +22 55 39   0.04182 1.0391   122.7    55.4    21.5
...
2024 06 23    17 27 54.8 +24 27 01   0.01798 1.0283   131.2    48.1    19.4
...
2024 07 01    00 16 15.4 -09 48 34   0.02751 1.0215    99.4    79.1    21.3
...
2024 07 16    01 33 33.1 -17 25 29   0.09165 1.0334    98.2    76.8    23.8

M. P. C. Staff               (C) Copyright 2024 MPC           M.P.E.C. 2024-M03





More information about the Iaude mailing list